2020-079D

Last updated on Thu Dec 03 2020 00:02:03 GMT+0000 (Coordinated Universal Time)

1 46830U 20079D 20337.54296019 .00073540 00000-0 23688-2 0 9998 2 46830 97.2676 49.2339 0007825 149.5302 341.3775 15.31888321 4033

Satellite not in orbit

2020-079D